Regional Weather Roundup
Issued by NWS

Home | Current Version | Previous Version | Text Only | Print | Product List | Glossary On
Versions: 1 2 3 4 5 6 7 8 9 10 11 12 13 14 15 16 17 18 19 20 21 22 23 24 25 26 27 28 29 30 31 32 33 34 35 36 37 38 39 40 41 42 43 44 45 46 47 48 49 50
000
ASUS42 KTBW 291517
RWRFL
FLORIDA REGIONAL WEATHER ROUNDUP
NATIONAL WEATHER SERVICE TAMPA BAY RUSKIN FL
1100 AM EDT SAT APR 29 2017

NOTE: "FAIR" INDICATES FEW OR NO CLOUDS BELOW 12,000 FEET WITH NO
SIGNIFICANT WEATHER AND/OR OBSTRUCTIONS TO VISIBILITY.

FLZ001>010-012>015-112-114-115-291600-
PANHANDLE FLORIDA

CITY           SKY/WX    TMP DP  RH WIND       PRES   REMARKS
PENSACOLA      CLOUDY    79  72  79 SE18G25   30.04F
PENSACOLA NAS  CLOUDY    79  72  79 SE17G26   30.03S
MILTON NAS     LGT RAIN  78  71  79 SE20      30.06S
CRESTVIEW      PTSUNNY   83  70  64 SE9G21    30.09S
DUKE FIELD     FAIR      81  70  70 SE18G28   30.07R
VALPARAISO     PTSUNNY   80  72  78 SE22G28   30.07S
MARY ESTHER    DRIZZLE   79  70  73 SE16G23   30.06
PANAMA CITY    FAIR      82  71  69 SE15G24   30.10R
TYNDALL AFB    PTSUNNY   82  71  70 SE21      30.10R
APALACHICOLA   MOSUNNY   81  75  82 SE16G23   30.10S

STATION/POSITION SKY/WX   TEMP    WIND        PRES    WAVE   SWELL
                          AIR SEA DIR/SP/G            HT/PER HT/PER
                          (F)     (DEG/KT/KT) (MB)    (FT/S) (FT/S)
30.1N   87.6W              76 75  130/ 17/ 21 1015.8F   4/ 6
29.2N   88.2W              77 76  140/ 17/ 23 1015.4R   5/ 6
28.8N   86.0W              76 75  130/ 17/ 19 1017.1R   4/ 5
PANAMA CITY BEAC           76 77  130/ 16/ 18 1019.3R
TOWER C                    75     140/ 17/ 20 1019.9R
28.5N   84.5W              75 74  130/ 16/ 19 1018.3R   3/ 6   2/ 7

$$
FLZ011-016>038-118-127-128-134-139-239-291600-
NORTH FLORIDA

CITY           SKY/WX    TMP DP  RH WIND       PRES   REMARKS
MARIANNA       CLOUDY    82  72  71 SE12      30.10F
TALLAHASSEE    CLOUDY    81  71  71 S9        30.13R
PERRY          CLOUDY    81  71  72 SE9       30.16R
CROSS CITY     PTSUNNY   82  72  69 S10G20    30.14F
LAKE CITY      PTSUNNY   81  70  69 S13       30.17S
GAINESVILLE    CLOUDY    81  69  67 SE13      30.17R
WILLISTON      SUNNY     88  72  58 VRB7G15   30.15S
PALATKA        FAIR      82  70  65 S7        30.19R
MAYPORT NAS    MOSUNNY   77  74  90 SE17      30.20S
JACKSONVILLE   PTSUNNY   83  68  60 SE13      30.19R
JAX NAS        PTSUNNY   83  68  60 S14       30.19S
FERNANDINA BEA FAIR      82  73  74 SE12      30.20R
ST AUGUSTINE   PTSUNNY   82  73  74 SE16      30.21R HAZE
PALM COAST     MOSUNNY   82  72  69 SE14      30.19R

STATION/POSITION SKY/WX   TEMP    WIND        PRES    WAVE   SWELL
                          AIR SEA DIR/SP/G            HT/PER HT/PER
                          (F)     (DEG/KT/KT) (MB)    (FT/S) (FT/S)
SHELL POINT      NOT AVBL
KEATON BEACH               78     140/ 15/ 17 1020.6R
CEDAR KEY                  77     140/ 12/ 13 1020.9R
FERNANDINA                 80 77  150/  9/ 16 1023.6R
30.7N   81.3W                 74                N/A     3/ 5
MAYPORT                    78 76  130/ 10/ 15 1023.2R
31.4N   80.9W              74 73  120/  6/  6 1023.2R   4/ 6   3/ 6
ST AUGUSTINE               76 77  140/ 14/ 16 1023.6R

$$
FLZ040-043>046-052-053-057-058-063-144-291600-
INTERIOR CENTRAL FLORIDA

CITY           SKY/WX    TMP DP  RH WIND       PRES   REMARKS
OCALA          MOSUNNY   82  66  57 S9G16     30.17R
THE VILLAGES     N/A     84  72  65 SE13      30.07R
LEESBURG       MOSUNNY   84  70  62 SE13      30.17R
SANFORD        MOSUNNY   85  66  53 SE15      30.17S
ORLANDO EXEC   MOSUNNY   85  67  54 SE14G23   30.17S
ORLANDO INTL   PTSUNNY   84  67  56 SE9G18    30.17R
WINTER HAVEN   MOSUNNY   84  65  52 SE12      30.16F
LAKELAND       PTSUNNY   84  68  58 SE18      30.16S
BARTOW         MOSUNNY   82  66  57 SE15      30.15F
OKEECHOBEE     SUNNY     86  63  45 SE9G20    30.16F

$$
FLZ041-047-054-059-064-141-147-291600-
EAST CENTRAL FLORIDA

CITY           SKY/WX    TMP DP  RH WIND       PRES   REMARKS
ORMOND BEACH   PTSUNNY   82  72  69 SE12G17   30.19R
DAYTONA BEACH  PTSUNNY   81  72  74 E13G21    30.18S
DELAND         MOSUNNY   84  70  61 S14       30.17S
JFK SPACE CTR  PTSUNNY   81  71  72 SE13      30.19R
TITUSVILLE     PTSUNNY   86  73  66 SE13      30.20R
PATRICK AFB    MOSUNNY   83  72  67 SE17      30.18R
MELBOURNE      MOSUNNY   85  69  58 SE18G24   30.18R
VERO BEACH     MOSUNNY   84  70  62 SE17      30.18S
FT PIERCE      SUNNY     85  70  60 SE22G28   30.17S
STUART         MOSUNNY   84  72  65 SE18G29   30.19R

STATION/POSITION SKY/WX   TEMP    WIND        PRES    WAVE   SWELL
                          AIR SEA DIR/SP/G            HT/PER HT/PER
                          (F)     (DEG/KT/KT) (MB)    (FT/S) (FT/S)
28.5N   80.2W              78 76  130/ 16/ 17 1023.6R   4/ 5   2/ 9
28.9N   78.5W              78 79  120/ 14/ 17 1023.5R   4/ 7   2/ 7
TRIDENT PIER               82 80  110/  9/ 13 1024.0R
28.4N   80.5W                 78                N/A     3/ 5
27.5N   80.2W                 77                N/A     4/ 5   2/12

$$
FLZ050-056-061-142-242-148-248-149-249-151-251-155-255-
160-260-291600-
WEST CENTRAL FLORIDA

CITY           SKY/WX    TMP DP  RH WIND       PRES   REMARKS
CRYSTAL RIVER  FAIR      86  70  58 E12G17    30.13S
INVERNESS      FAIR      84  70  61 S10G17    30.15S
BROOKSVILLE    MOSUNNY   88  69  53 SE15G23   30.13F
CLEARWATER AIR PTSUNNY   81  70  69 SE13G22   30.12S
ST PETE CLEARW PTSUNNY   85  69  58 SE20G28   30.12S
TAMPA INTL     PTSUNNY   85  70  60 SE10G20   30.13S
TAMPA EXEC     PTSUNNY   88  68  51 SE8G17    30.14S
PLANT CITY     PTSUNNY   86  72  62 SE14      30.16S
MACDILL AFB    MOSUNNY   85  73  68 SE17      30.12S
PETER O KNIGHT PTSUNNY   88  73  62 SE14G21   30.13S HX  96
ST PETERSBURG  MOSUNNY   81  71  71 S17       30.10F
SARASOTA       MOSUNNY   87  67  51 SE18G25   30.10S
VENICE         FAIR      86  70  58 SE18      30.12S

STATION/POSITION SKY/WX   TEMP    WIND        PRES    WAVE   SWELL
                          AIR SEA DIR/SP/G            HT/PER HT/PER
                          (F)     (DEG/KT/KT) (MB)    (FT/S) (FT/S)
27.3N   84.2W                 75                N/A     5/ 7
CLEARWATER BEACH           81 79  130/ 10/ 17 1019.8F
MIDDLE TAMPA BAY           81     150/ 16/ 19 1020.0F
VENICE                     81 80  120/ 16/ 21 1019.5F

$$
FLZ066-069-070-075>078-162-262-165-265-291600-
SOUTHWEST FLORIDA AND KEYS

CITY           SKY/WX    TMP DP  RH WIND       PRES   REMARKS
PUNTA GORDA    MOSUNNY   87  68  52 SE17      30.13F
FT MYERS       PTSUNNY   86  69  56 SE18G25   30.11F
SOUTHWEST INTL MOSUNNY   85  68  56 SE16G25   30.12F
NAPLES         PTSUNNY   87  68  52 SE13      30.12S
MARCO ISLAND   MOSUNNY   84  66  54 SE20G25   30.13S
IMMOKALEE      FAIR      86  68  54 E14G22    30.12F
MARATHON       SUNNY     85  74  69 E10G23    30.11S
KEY WEST NAS   PTSUNNY   80  74  81 E22       30.10S
KEY WEST INTL  MOSUNNY   83  75  77 E17G26    30.10S

STATION/POSITION SKY/WX   TEMP    WIND        PRES    WAVE   SWELL
                          AIR SEA DIR/SP/G            HT/PER HT/PER
                          (F)     (DEG/KT/KT) (MB)    (FT/S) (FT/S)
NAPLES                        80  100/ 11/ 15 1019.9F
26.0N   85.6W              80     140/ 19/ 25 1016.3R   9/ 8
DRY TORTUGAS               80     130/ 18/ 19 1018.6R
SAND KEY                   79     130/ 18/ 21 1019.5F
LONG KEY                   80 81  120/ 16/ 18 1020.3R
MOLASSES REEF              79 79  120/ 17/ 19 1020.8R

$$
FLZ067-068-071>074-168-172>174-291600-
SOUTHEAST FLORIDA

CITY           SKY/WX    TMP DP  RH WIND       PRES   REMARKS
W PALM BEACH   MOSUNNY   83  68  60 E20       30.18R
BOCA RATON     MOSUNNY   82  72  69 SE12G23   30.17R
FT LAUDER-EXEC MOSUNNY   86  67  52 SE18G25   30.16R
FT LAUDERDALE  PTSUNNY   83  70  64 E21       30.15R
POMPANO BEACH  PTSUNNY   84  71  65 E16       30.16R
PEMBROKE PINES PTSUNNY   82  69  64 E15G24    30.17R
OPA LOCKA      PTSUNNY   81  68  64 SE15G26   30.16R
MIAMI          PTSUNNY   84  68  58 E17       30.15R
WEST KENDALL   MOSUNNY   85  68  56 SE20G25   30.15R
HOMESTEAD      MOSUNNY   83  72  70 E13G23    30.14R

STATION/POSITION SKY/WX   TEMP    WIND        PRES    WAVE   SWELL
                          AIR SEA DIR/SP/G            HT/PER HT/PER
                          (F)     (DEG/KT/KT) (MB)    (FT/S) (FT/S)
PORT EVERGLADES            81     110/  5/ 10 1021.2R
VIRGINIA KEY               80 81   90/ 11/ 16 1020.3R
LAKE WORTH                 78 79  110/ 14/ 16 1022.5R
FOWEY ROCKS                79 79  100/ 19/ 20 1021.5R
SETTLEMENT POINT           78     110/ 15/ 17 1022.2R

$$




USA.gov is the U.S. government's official web portal to all federal, state and local government web resources and services.